OTB-3-GAZELLE

Last updated on Sun Apr 12 2026 00:02:47 GMT+0000 (Coordinated Universal Time)

1 54023U 22127A 26101.40813088 .00000127 00000+0 51278-4 0 9996 2 54023 98.3932 94.1371 0013855 34.8218 325.3875 14.42650604184731
UTC large
Height (km)
Speed (km/s)
/
Latitude / Longitude
Inclination (degrees)
Orbital Period (minutes)
Azimuth
Elevation
Range (km)
Doppler Factor

Next 0 passes for location: London (51.5072 / 0.1276)

Sorry there are no passes over London.
OTB-3-GAZELLE